Regional Weather Roundup
Issued by NWS Sterling, VA

Home | Current Version | Previous Version | Text Only | Print | Product List | Glossary Off
Versions: 1 2 3 4 5 6 7 8 9 10 11 12 13 14 15 16 17 18 19 20 21 22 23 24 25 26 27 28

000
ASUS41 KLWX 232110
RWRLWX

REGIONAL WEATHER ROUNDUP
NATIONAL WEATHER SERVICE BALTIMORE MD/WASHINGTON DC
500 PM EDT WED APR 23 2014

Note: "FAIR" indicates few or no clouds below 12,000 feet
with no significant weather and/or obstructions to visibility.
 TC=TEMPERATURE CELSIUS

 * =Non NWS site. Station does not report precipitation (e.g. rain,
    snow, etc.), thunder, or fog.

DCZ001-MDZ009-015-VAZ040>042-051-053>054-232200-
WASHINGTON METRO

CITY           SKY/WX    TMP DP  RH WIND       PRES   REMARKS
WASHINGTON NAT MOSUNNY   60  35  39 NW20G26   29.85R
DULLES         MOSUNNY   57  33  40 NW21G29   29.87R
ANDREWS AFB    MOSUNNY   58  35  41 NW21G28   29.83S
FT BELVOIR     MOSUNNY   60  33  37 NW23      29.86R
QUANTICO       MOSUNNY   62  33  33 N20G32    29.86R
COLLEGE PARK*  SUNNY     59  34  38 NW14G26   29.84R
LEESBURG*      CLOUDY    59  37  44 N22G28    29.89R
MANASSAS*      MOSUNNY   61  36  39 NW15G29   29.87R
GAITHERSBURG*  MOSUNNY   55  34  44 NW26G32   29.88R

$$

MDZ006>007-011-014-232200-
BALTIMORE METRO

CITY           SKY/WX    TMP DP  RH WIND       PRES   REMARKS
BWI AIRPORT    MOSUNNY   56  35  45 NW17G26   29.82R
MD SCIENCE CTR   N/A     58  35  42 MISG      29.83R
MARTIN STATE   MOSUNNY   61  39  44 W23G29    29.81S
ANNAPOLIS      SUNNY     58  36  43 NW16G25   29.81R
FORT MEADE*    MOSUNNY   57  34  41 NW14G30   29.85R

$$

MDZ012-015-019>023-232200-
MARYLAND EASTERN SHORE

CITY           SKY/WX    TMP DP  RH WIND       PRES   REMARKS
OCEAN CITY     MOSUNNY   60  36  40 NW18G31   29.74R
SALISBURY      PTSUNNY   62  35  36 NW14G29   29.76S
CAMBRIDGE*     SUNNY     61  36  39 NW12G24   29.79S
EASTON*        MOSUNNY   63  39  42 NW17G28   29.82S

$$

MDZ017>025-232200-
SOUTHERN MARYLAND

CITY           SKY/WX    TMP DP  RH WIND       PRES   REMARKS
PATUXENT RIVER MOSUNNY   61  34  36 NW24G31   29.80R
ST INIGOES     SUNNY     61  35  37 W21G29    29.80R
LEONARDTOWN*   MOSUNNY   59  32  36 NW13G22   29.83R

$$

MDZ003>005-232200-
NORTH CENTRAL MARYLAND

CITY           SKY/WX    TMP DP  RH WIND       PRES   REMARKS
FREDERICK*     MOSUNNY   54  37  54 NW20G31   29.90R
HAGERSTOWN APT CLOUDY    50  34  54 NW12      29.89R
WESTMINSTER*   PTSUNNY   55  36  47 NW10G23   29.84R

$$

MDZ501>502-232200-
WESTERN MARYLAND

CITY           SKY/WX    TMP DP  RH WIND       PRES   REMARKS
OAKLAND*       MOSUNNY   41  30  65 NW13G24   29.92F
CUMBERLAND*    MOSUNNY   52  32  46 N13G21    29.98F

$$

VAZ025>031-232200-
SHENANDOAH VALLEY

CITY           SKY/WX    TMP DP  RH WIND       PRES   REMARKS
WINCHESTER*    MOSUNNY   54  32  43 NW13G29   29.90R
STAUNTON*      SUNNY     58  29  32 NW15      29.91R

$$

WVZ021-048>050-054>055-232200-
EASTERN WEST VIRGINIA PANHANDLE

CITY           SKY/WX    TMP DP  RH WIND       PRES   REMARKS
MARTINSBURG    PTSUNNY   55  31  39 NW18G29   29.91R
PETERSBURG*    SUNNY     59  38  45 NW18G28   29.95R

$$

VAZ036>039-050-232200-
CENTRAL FOOTHILLS

CITY           SKY/WX    TMP DP  RH WIND       PRES   REMARKS
CHARLOTTESVILL SUNNY     63  29  27 NW14G25   29.85R
CULPEPER*      MOSUNNY   63  28  27 N15G21    29.87R

$$

VAZ055>057-232200-
NORTH AND CENTRAL PIEDMONT

CITY           SKY/WX    TMP DP  RH WIND       PRES   REMARKS
FREDERICKSBRG* SUNNY     64  34  33 N14G23    29.84S
STAFFORD*      MOSUNNY   61  35  38 N13G18    29.89S

$$

NCZ024-NYZ072-PAZ021-071-VAZ022-071-232200-
OTHER REGIONAL OBSERVATIONS

CITY           SKY/WX    TMP DP  RH WIND       PRES   REMARKS
NEW YORK CITY  PTSUNNY   59  33  37 NW12G29   29.66R
PHILADELPHIA   MOSUNNY   60  32  34 NW24G44   29.74R
PITTSBURGH     PTSUNNY   46  31  55 NW13G18   30.02R
ROANOKE        SUNNY     65  26  23 NW13G30   29.90F
RICHMOND       MOSUNNY   67  28  23 NW24G32   29.83R
RALEIGH        SUNNY     71  26  18 N10G24    29.83F

$$

ANZ530>537-232200-
MARINE OBSERVATIONS

STATION/POSITION TIME  TEMP    WIND        PRES
                       AIR SEA DIR/SP/G
                 (UTC) (F)     (DEG/KT/KT) (MB)
THOMAS PT LIGHT  2100   57 54  320/ 21/ 25 1009.5R
BALT KEY BRIDGE  2100   55     300/ 21/ 24 1009.8R
COVE POINT       2100   57     340/ 17/ 22 1008.9R
LEWISETTA        2100   59 59  330/ 15/ 27 1009.6R
SOLOMONS ISLAND  2100      56                N/A
PINEY POINT      2100          340/ 21/ 23   N/A

$$




USA.gov is the U.S. government's official web portal to all federal, state and local government web resources and services.